Location: Nitra
(48.3167°N, 18.0833°E)
Time: 08:04:39
(UTC+02:00)

STARLINK-1742 - Pass Details

Date: 24 September 2020
Orbit: 379 x 380 km, 53.0° (Epoch: 23 October)

Event Time Altitude Azimuth Distance (km) Brightness Sun altitude
Exits shadow 03:27:56 11° 58° (ENE) 1,331 6.4 -30.1°
Drops below altitude 10° 03:28:07 10° 60° (ENE) 1,407 6.6 -30.1°
Sets 03:30:14 0° 67° (ENE) 2,257 7.8 -29.8°
